Location: El Escondido
(32.5691°N, 116.4250°W)
Time: 10:29:04
(UTC+00:00)

SL-16 R/B - Pass Details

Date: 13 April 2024
Orbit: 839 x 849 km, 71.0° (Epoch: 22 May)

Event Time Altitude Azimuth Distance (km) Brightness Sun altitude
Exits shadow 12:40:41 - 235° (SW) 2,555 4.1 -8.4°
Reaches altitude 10° 12:41:01 10° 237° (WSW) 2,448 4.0 -8.4°
Maximum altitude 12:45:52 30° 297° (WNW) 1,473 3.1 -7.4°
Drops below altitude 10° 12:50:46 10° 358° (N) 2,462 4.8 -6.4°
Sets 12:53:33 0° 9° (N) 3,402 5.7 -5.8°
